| time (UTC) | temp F | wind direction | speed MPH | gust MPH | rain 1hr in | rain 24hr in | rain mn in | humidity % | barometer mb |
| 20260904073516 | 72 | 66 | 3.0 | 7.0 | 0.00 | 0.00 | 0.00 | 31 | 1023.9 |
| 20260904072556 | 71 | 44 | 4.0 | 9.0 | 0.00 | 0.00 | 0.00 | 31 | 1023.7 |
| 20260904071516 | 71 | 53 | 3.0 | 6.0 | 0.00 | 0.00 | 0.00 | 33 | 1024.0 |
| 20260904070517 | 70 | 42 | 2.0 | 6.0 | 0.00 | 0.00 | 0.00 | 33 | 1024.0 |
| 20260904065516 | 70 | 49 | 4.0 | 6.0 | 0.00 | 0.00 | 0.00 | 33 | 1023.8 |
| 20260904064516 | 69 | 53 | 2.0 | 5.0 | 0.00 | 0.00 | 0.00 | 33 | 1023.8 |
| 20260904063556 | 69 | 40 | 3.0 | 7.0 | 0.00 | 0.00 | 0.00 | 33 | 1023.7 |
| 20260904062556 | 68 | 48 | 3.0 | 5.0 | 0.00 | 0.00 | 0.00 | 34 | 1023.6 |
| 20260904061516 | 68 | 47 | 3.0 | 6.0 | 0.00 | 0.00 | 0.00 | 33 | 1023.6 |
| 20260904060516 | 69 | 58 | 2.0 | 5.0 | 0.00 | 0.00 | 0.00 | 33 | 1023.7 |
| 20260904055516 | 69 | 73 | 2.0 | 4.0 | 0.00 | 0.00 | 0.00 | 33 | 1023.6 |
| 20260904054516 | 69 | 46 | 1.0 | 2.0 | 0.00 | 0.00 | 0.00 | 33 | 1023.5 |
| 20260904053516 | 68 | 50 | 2.0 | 4.0 | 0.00 | 0.00 | 0.00 | 34 | 1023.3 |
| 20260904052516 | 68 | 55 | 3.0 | 5.0 | 0.00 | 0.00 | 0.00 | 34 | 1023.2 |
| 20260904051516 | 68 | 78 | 2.0 | 3.0 | 0.00 | 0.00 | 0.00 | 34 | 1023.3 |
| 20260904050516 | 69 | 79 | 2.0 | 3.0 | 0.00 | 0.00 | 0.00 | 33 | 1023.3 |
| 20260904045516 | 69 | 78 | 1.0 | 5.0 | 0.00 | 0.00 | 0.00 | 32 | 1023.1 |
| 20260904044516 | 70 | 48 | 4.0 | 7.0 | 0.00 | 0.00 | 0.00 | 32 | 1023.1 |
| 20260904043516 | 70 | 53 | 4.0 | 7.0 | 0.00 | 0.00 | 0.00 | 31 | 1023.2 |
| 20260904042516 | 71 | 49 | 3.0 | 7.0 | 0.00 | 0.00 | 0.00 | 30 | 1023.2 |
| 20260904041516 | 71 | 54 | 4.0 | 10.0 | 0.00 | 0.00 | 0.00 | 30 | 1023.2 |
| 20260904040516 | 72 | 57 | 4.0 | 7.0 | 0.00 | 0.00 | 0.00 | 29 | 1023.2 |
| 20260904035516 | 72 | 63 | 5.0 | 11.0 | 0.00 | 0.00 | 0.00 | 28 | 1023.3 |
| 20260904034516 | 72 | 55 | 5.0 | 11.0 | 0.00 | 0.00 | 0.00 | 28 | 1023.3 |
| 20260904033556 | 72 | 45 | 7.0 | 10.0 | 0.00 | 0.00 | 0.00 | 29 | 1023.5 |
| 20260904032516 | 72 | 48 | 5.0 | 9.0 | 0.00 | 0.00 | 0.00 | 30 | 1023.5 |
| 20260904031556 | 72 | 43 | 4.0 | 6.0 | 0.00 | 0.00 | 0.00 | 30 | 1023.4 |
| 20260904030516 | 72 | 43 | 4.0 | 7.0 | 0.00 | 0.00 | 0.00 | 30 | 1023.3 |
| 20260904025516 | 72 | 43 | 4.0 | 8.0 | 0.00 | 0.00 | 0.00 | 29 | 1023.3 |
| 20260904024516 | 73 | 41 | 4.0 | 6.0 | 0.00 | 0.00 | 0.00 | 29 | 1023.2 |
| 20260904023516 | 73 | 42 | 3.0 | 6.0 | 0.00 | 0.00 | 0.00 | 29 | 1023.2 |
| 20260904022556 | 74 | 53 | 3.0 | 6.0 | 0.00 | 0.00 | 0.00 | 29 | 1023.3 |
| 20260904021556 | 74 | 68 | 2.0 | 6.0 | 0.00 | 0.00 | 0.00 | 28 | 1023.3 |
| 20260904020516 | 75 | 74 | 3.0 | 5.0 | 0.00 | 0.00 | 0.00 | 27 | 1023.4 |
| 20260904015516 | 76 | 64 | 4.0 | 7.0 | 0.00 | 0.00 | 0.00 | 27 | 1023.5 |
| 20260904014517 | 76 | 70 | 3.0 | 7.0 | 0.00 | 0.00 | 0.00 | 26 | 1023.6 |
| 20260904013616 | 76 | 65 | 3.0 | 6.0 | 0.00 | 0.00 | 0.00 | 26 | 1023.7 |
| 20260904012516 | 77 | 69 | 3.0 | 8.0 | 0.00 | 0.00 | 0.00 | 26 | 1023.8 |
| 20260904011516 | 77 | 58 | 4.0 | 9.0 | 0.00 | 0.00 | 0.00 | 25 | 1023.6 |
| 20260904010516 | 78 | 51 | 5.0 | 9.0 | 0.00 | 0.00 | 0.00 | 25 | 1023.8 |
| 20260904005516 | 78 | 60 | 5.0 | 9.0 | 0.00 | 0.00 | 0.00 | 25 | 1023.9 |
| 20260904004517 | 78 | 49 | 5.0 | 10.0 | 0.00 | 0.00 | 0.00 | 25 | 1023.8 |
| 20260904003516 | 79 | 62 | 3.0 | 7.0 | 0.00 | 0.00 | 0.00 | 25 | 1023.8 |
| 20260904002616 | 79 | 62 | 3.0 | 7.0 | 0.00 | 0.00 | 0.00 | 24 | 1023.8 |
| 20260904001616 | 79 | 59 | 3.0 | 7.0 | 0.00 | 0.00 | 0.00 | 24 | 1023.8 |
| 20260904000516 | 79 | 49 | 3.0 | 6.0 | 0.00 | 0.00 | 0.00 | 24 | 1023.8 |
| 20260903235516 | 80 | 53 | 3.0 | 7.0 | 0.00 | 0.00 | 0.00 | 25 | 1023.8 |
| 20260903234516 | 80 | 67 | 3.0 | 5.0 | 0.00 | 0.00 | 0.00 | 24 | 1023.6 |
| 20260903233556 | 81 | 88 | 2.0 | 5.0 | 0.00 | 0.00 | 0.00 | 24 | 1023.5 |
| 20260903232556 | 81 | 87 | 2.0 | 4.0 | 0.00 | 0.00 | 0.00 | 23 | 1023.5 |
| 20260903231516 | 81 | 75 | 2.0 | 4.0 | 0.00 | 0.00 | 0.00 | 24 | 1023.4 |
| 20260903230516 | 81 | 77 | 2.0 | 3.0 | 0.00 | 0.00 | 0.00 | 25 | 1023.3 |
| 20260903225516 | 82 | 72 | 2.0 | 4.0 | 0.00 | 0.00 | 0.00 | 25 | 1023.5 |
| 20260903224516 | 82 | 61 | 1.0 | 3.0 | 0.00 | 0.00 | 0.00 | 25 | 1023.2 |
| 20260903223516 | 83 | 61 | 2.0 | 3.0 | 0.00 | 0.00 | 0.00 | 24 | 1023.2 |
| 20260903222516 | 83 | 61 | 1.0 | 3.0 | 0.00 | 0.00 | 0.00 | 24 | 1023.2 |
| 20260903221516 | 83 | 48 | 3.0 | 5.0 | 0.00 | 0.00 | 0.00 | 24 | 1022.9 |
| 20260903220516 | 84 | 43 | 3.0 | 4.0 | 0.00 | 0.00 | 0.00 | 24 | 1023.0 |
| 20260903215556 | 84 | 55 | 2.0 | 4.0 | 0.00 | 0.00 | 0.00 | 24 | 1023.0 |
| 20260903214556 | 85 | 63 | 3.0 | 4.0 | 0.00 | 0.00 | 0.00 | 23 | 1022.8 |
| 20260903213516 | 85 | 65 | 2.0 | 4.0 | 0.00 | 0.00 | 0.00 | 23 | 1022.7 |
| 20260903212516 | 85 | 65 | 2.0 | 4.0 | 0.00 | 0.00 | 0.00 | 23 | 1022.8 |
| 20260903211516 | 86 | 65 | 2.0 | 3.0 | 0.00 | 0.00 | 0.00 | 23 | 1022.6 |
| 20260903210516 | 86 | 65 | 2.0 | 4.0 | 0.00 | 0.00 | 0.00 | 22 | 1022.7 |
| 20260903205616 | 87 | 65 | 2.0 | 3.0 | 0.00 | 0.00 | 0.00 | 22 | 1022.7 |
| 20260903204516 | 87 | 260 | 1.0 | 2.0 | 0.00 | 0.00 | 0.00 | 22 | 1022.3 |
| 20260903203516 | 85 | 260 | 1.0 | 2.0 | 0.00 | 0.00 | 0.00 | 24 | 1022.1 |
| 20260903202516 | 85 | 0.0 | 0.0 | 0.00 | 0.00 | 0.00 | 26 | 1022.1 | |
| 20260903201516 | 85 | 0.0 | 0.0 | 0.00 | 0.00 | 0.00 | 25 | 1021.8 | |
| 20260903200516 | 86 | 0.0 | 0.0 | 0.00 | 0.00 | 0.00 | 27 | 1021.9 | |
| 20260903195556 | 86 | 0.0 | 0.0 | 0.00 | 0.00 | 0.00 | 24 | 1021.6 | |
| 20260903194556 | 88 | 0.0 | 0.0 | 0.00 | 0.00 | 0.00 | 24 | 1021.5 | |
| 20260903193516 | 88 | 0.0 | 0.0 | 0.00 | 0.00 | 0.00 | 23 | 1021.4 | |
| 20260903192516 | 89 | 0.0 | 0.0 | 0.00 | 0.00 | 0.00 | 23 | 1021.4 | |
| 20260903191516 | 90 | 0.0 | 0.0 | 0.00 | 0.00 | 0.00 | 22 | 1021.4 | |
| 20260903190556 | 92 | 260 | 0.0 | 1.0 | 0.00 | 0.00 | 0.00 | 21 | 1021.3 |
| 20260903185516 | 93 | 260 | 0.0 | 1.0 | 0.00 | 0.00 | 0.00 | 20 | 1021.4 |
| 20260903184556 | 94 | 260 | 1.0 | 2.0 | 0.00 | 0.00 | 0.00 | 18 | 1021.3 |
| 20260903183516 | 95 | 260 | 1.0 | 2.0 | 0.00 | 0.00 | 0.00 | 17 | 1021.4 |
| 20260903182516 | 97 | 260 | 1.0 | 2.0 | 0.00 | 0.00 | 0.00 | 17 | 1021.5 |
| 20260903181556 | 98 | 260 | 1.0 | 3.0 | 0.00 | 0.00 | 0.00 | 16 | 1021.6 |
| 20260903180516 | 98 | 266 | 1.0 | 4.0 | 0.00 | 0.00 | 0.00 | 15 | 1021.5 |
| 20260903175516 | 99 | 265 | 2.0 | 7.0 | 0.00 | 0.00 | 0.00 | 15 | 1021.7 |
| 20260903174516 | 99 | 270 | 2.0 | 5.0 | 0.00 | 0.00 | 0.00 | 14 | 1021.6 |
| 20260903173516 | 99 | 252 | 2.0 | 4.0 | 0.00 | 0.00 | 0.00 | 14 | 1021.6 |
| 20260903172516 | 100 | 241 | 2.0 | 5.0 | 0.00 | 0.00 | 0.00 | 14 | 1021.6 |
| 20260903171516 | 99 | 271 | 3.0 | 7.0 | 0.00 | 0.00 | 0.00 | 14 | 1021.7 |
| 20260903170516 | 100 | 250 | 2.0 | 5.0 | 0.00 | 0.00 | 0.00 | 14 | 1021.8 |
| 20260903165516 | 100 | 279 | 4.0 | 8.0 | 0.00 | 0.00 | 0.00 | 14 | 1021.8 |
| 20260903164516 | 100 | 266 | 3.0 | 9.0 | 0.00 | 0.00 | 0.00 | 14 | 1021.7 |
| 20260903163557 | 100 | 228 | 3.0 | 9.0 | 0.00 | 0.00 | 0.00 | 14 | 1021.8 |
| 20260903162516 | 100 | 262 | 4.0 | 9.0 | 0.00 | 0.00 | 0.00 | 14 | 1021.9 |
| 20260903161516 | 100 | 232 | 3.0 | 8.0 | 0.00 | 0.00 | 0.00 | 14 | 1021.9 |
| 20260903160516 | 100 | 248 | 3.0 | 7.0 | 0.00 | 0.00 | 0.00 | 15 | 1022.0 |
| 20260903155516 | 100 | 266 | 5.0 | 12.0 | 0.00 | 0.00 | 0.00 | 15 | 1022.0 |
| 20260903154516 | 100 | 261 | 3.0 | 9.0 | 0.00 | 0.00 | 0.00 | 16 | 1022.1 |
| 20260903153636 | 100 | 265 | 3.0 | 9.0 | 0.00 | 0.00 | 0.00 | 15 | 1022.1 |
| 20260903152516 | 100 | 286 | 4.0 | 8.0 | 0.00 | 0.00 | 0.00 | 14 | 1022.2 |
| 20260903151516 | 100 | 263 | 3.0 | 8.0 | 0.00 | 0.00 | 0.00 | 15 | 1022.3 |
| 20260903150516 | 100 | 167 | 1.0 | 7.0 | 0.00 | 0.00 | 0.00 | 14 | 1022.3 |
| 20260903145516 | 98 | 280 | 3.0 | 9.0 | 0.00 | 0.00 | 0.00 | 14 | 1022.5 |
| 20260903144516 | 99 | 303 | 5.0 | 10.0 | 0.00 | 0.00 | 0.00 | 13 | 1022.7 |
| 20260903143516 | 99 | 257 | 3.0 | 6.0 | 0.00 | 0.00 | 0.00 | 11 | 1022.7 |
| 20260903142516 | 98 | 296 | 5.0 | 10.0 | 0.00 | 0.00 | 0.00 | 11 | 1022.6 |
| 20260903141516 | 98 | 258 | 3.0 | 7.0 | 0.00 | 0.00 | 0.00 | 14 | 1022.8 |
| 20260903140517 | 98 | 269 | 4.0 | 10.0 | 0.00 | 0.00 | 0.00 | 15 | 1022.9 |
| 20260903135556 | 98 | 214 | 2.0 | 7.0 | 0.00 | 0.00 | 0.00 | 16 | 1023.0 |
| 20260903134516 | 97 | 299 | 4.0 | 10.0 | 0.00 | 0.00 | 0.00 | 15 | 1023.2 |
| 20260903133516 | 97 | 355 | 4.0 | 11.0 | 0.00 | 0.00 | 0.00 | 15 | 1023.3 |
| 20260903132556 | 98 | 274 | 6.0 | 10.0 | 0.00 | 0.00 | 0.00 | 17 | 1023.5 |
| 20260903131516 | 97 | 285 | 2.0 | 8.0 | 0.00 | 0.00 | 0.00 | 18 | 1023.6 |
| 20260903130556 | 97 | 279 | 4.0 | 8.0 | 0.00 | 0.00 | 0.00 | 17 | 1023.6 |
| 20260903125516 | 96 | 260 | 5.0 | 11.0 | 0.00 | 0.00 | 0.00 | 18 | 1023.6 |
| 20260903124516 | 96 | 278 | 3.0 | 10.0 | 0.00 | 0.00 | 0.00 | 19 | 1023.7 |
| 20260903123516 | 95 | 15 | 3.0 | 9.0 | 0.00 | 0.00 | 0.00 | 20 | 1023.7 |
| 20260903122516 | 96 | 271 | 5.0 | 9.0 | 0.00 | 0.00 | 0.00 | 20 | 1023.8 |
| 20260903121517 | 94 | 250 | 3.0 | 9.0 | 0.00 | 0.00 | 0.00 | 23 | 1024.0 |
| 20260903120556 | 94 | 349 | 4.0 | 11.0 | 0.00 | 0.00 | 0.00 | 23 | 1024.0 |
| 20260903115516 | 94 | 217 | 3.0 | 8.0 | 0.00 | 0.00 | 0.00 | 28 | 1024.2 |
| 20260903114516 | 93 | 271 | 2.0 | 5.0 | 0.00 | 0.00 | 0.00 | 29 | 1024.1 |
| 20260903113516 | 93 | 129 | 2.0 | 7.0 | 0.00 | 0.00 | 0.00 | 30 | 1024.2 |
| 20260903112516 | 92 | 241 | 2.0 | 4.0 | 0.00 | 0.00 | 0.00 | 31 | 1024.3 |
| 20260903111556 | 90 | 253 | 1.0 | 4.0 | 0.00 | 0.00 | 0.00 | 33 | 1024.5 |
| 20260903110517 | 89 | 232 | 2.0 | 5.0 | 0.00 | 0.00 | 0.00 | 33 | 1024.4 |
| 20260903105516 | 88 | 227 | 2.0 | 5.0 | 0.00 | 0.00 | 0.00 | 36 | 1024.6 |
| 20260903104517 | 88 | 255 | 2.0 | 4.0 | 0.00 | 0.00 | 0.00 | 37 | 1024.6 |
| 20260903103516 | 88 | 254 | 2.0 | 3.0 | 0.00 | 0.00 | 0.00 | 37 | 1024.7 |
| 20260903102557 | 87 | 249 | 2.0 | 5.0 | 0.00 | 0.00 | 0.00 | 39 | 1024.7 |
| 20260903101516 | 87 | 257 | 1.0 | 3.0 | 0.00 | 0.00 | 0.00 | 43 | 1024.8 |
| 20260903100517 | 85 | 262 | 1.0 | 3.0 | 0.00 | 0.00 | 0.00 | 46 | 1024.7 |
| 20260903095556 | 85 | 243 | 1.0 | 3.0 | 0.00 | 0.00 | 0.00 | 47 | 1024.8 |
| 20260903094517 | 84 | 272 | 1.0 | 3.0 | 0.00 | 0.00 | 0.00 | 49 | 1024.7 |
| 20260903093516 | 83 | 258 | 2.0 | 4.0 | 0.00 | 0.00 | 0.00 | 50 | 1024.7 |
| 20260903092516 | 82 | 34 | 1.0 | 3.0 | 0.00 | 0.00 | 0.00 | 48 | 1024.7 |
| 20260903091516 | 82 | 39 | 1.0 | 4.0 | 0.00 | 0.00 | 0.00 | 48 | 1024.8 |
| 20260903090516 | 81 | 62 | 0.0 | 2.0 | 0.00 | 0.00 | 0.00 | 47 | 1024.7 |
| 20260903085516 | 80 | 58 | 1.0 | 3.0 | 0.00 | 0.00 | 0.00 | 47 | 1024.6 |
| 20260903084516 | 79 | 47 | 1.0 | 2.0 | 0.00 | 0.00 | 0.00 | 47 | 1024.6 |
| 20260903083516 | 78 | 47 | 1.0 | 4.0 | 0.00 | 0.00 | 0.00 | 48 | 1024.5 |
| 20260903082516 | 76 | 47 | 2.0 | 4.0 | 0.00 | 0.00 | 0.00 | 49 | 1024.3 |
| 20260903081516 | 75 | 38 | 2.0 | 4.0 | 0.00 | 0.00 | 0.00 | 50 | 1024.3 |
| 20260903080517 | 74 | 49 | 3.0 | 5.0 | 0.00 | 0.00 | 0.00 | 50 | 1024.4 |
| 20260903075516 | 73 | 40 | 3.0 | 7.0 | 0.00 | 0.00 | 0.00 | 52 | 1024.1 |
| 20260903074517 | 72 | 48 | 4.0 | 9.0 | 0.00 | 0.00 | 0.00 | 53 | 1024.2 |